Location: East Arcadia
(34.1056°N, 118.0176°W)
Time: 02:16:50
(UTC+00:00)

Cosmos 2219 - Pass Details

Date: 01 April 2023
Orbit: 832 x 861 km, 71.1° (Epoch: 08 June)

Event Time Altitude Azimuth Distance (km) Brightness Sun altitude
Rises 12:40:33 0° 342° (NNW) 3,405 6.3 -12.8°
Reaches altitude 10° 12:43:01 10° 345° (NNW) 2,471 5.6 -12.4°
Maximum altitude 12:48:40 68° 68° (ENE) 915 3.6 -11.2°
Drops below altitude 10° 12:54:19 10° 151° (SSE) 2,476 5.9 -10.1°
Sets 12:56:47 0° 154° (SSE) 3,412 6.5 -9.6°
